星链-36415(STARLINK-36415)

导读 | 豆包AI

STARLINK-36415是美国太空探索技术公司SpaceX星链星座的成员,星链是全球低轨卫星互联网星座项目。该卫星于2026年1月18日发射升空,运行在近地轨道,承担为全球偏远、欠发达地区以及移动场景提供高速宽带互联网接入服务的任务,延续星链星座组网部署节奏。

基本信息
目录编号:
67519
目录名称:
STARLINK-36415
国际标识:
2026-012AC
轨道中心:
EARTH
卫星名称:
星链-36415
卫星全名:
星链-36415(STARLINK-36415)
卫星状态:
在轨 (已飞行76 天)
发射日期:
2026-01-18 UTC
国别 :
美国 (US)
星等 :
--
轨道信息
数据来源 国际轨道数据
星历时间: 2026-04-03T20:32:09+0800
11小时前
查看轨道信息
半长轴: 6861.291km
偏心率: 0.0001664
轨道倾角: 43.000°
近地点辐角 274.969°
升交点赤经 173.802°
平近点角 85.097°
近地点: 482.012km
远地点: 484.296km
周期: 94.269分钟
每日圈数: 15.275453
详细信息
固有亮度:
5
最大亮度:
2.5
卫星平台:
Starlink V1.0
覆盖范围:
全球
运营商:
太空探索技术公司
运营商所在国:
美国
制造商(研发单位):
太空探索技术公司
制造商所在国:
美国
使用方式:
暂无
卫星简介
Starlink 计划是 SpaceX 推出的全球卫星互联网项目,通过发射低轨道卫星,为全球尤其是偏远地区提供高速、低延迟的互联网服务。自 2019 年起,Starlink 已部署数千颗卫星,旨在缩小全球数字鸿沟,推动互联网普及。该项目还为军事、航空等行业提供通信支持,带来广泛经济效益。
2D轨道图
3D轨道图
轨道高度分析图
轨道倾角分析图
轨道综合分析图
查看轨道综合分析图